This is the latest recevied weather packets stored in our database for station/object NB9X. If no packets are shown the sender has not sent any weather packets the latest 10 day(s).
| Time | Temp. | Humidity | Pressure | Rain* | Wind** | Luminosity | Snow |
|---|---|---|---|---|---|---|---|
| 1778110988 | 25.56° C | 100% | 1012.7 hPa | 0 mm | - | - | - |
| 1778110688 | 25.56° C | 100% | 1012.7 hPa | 0 mm | - | - | - |
| 1778110388 | 25.56° C | 100% | 1013 hPa | 0 mm | - | - | - |
| 1778110088 | 26.11° C | 100% | 1013.9 hPa | 0 mm | - | - | - |
| 1778109788 | 26.11° C | 100% | 1014.5 hPa | 0 mm | - | - | - |
| 1778109488 | 26.11° C | 100% | 1014.5 hPa | 0 mm | - | - | - |
| 1778109188 | 26.11° C | 100% | 1014.5 hPa | 0 mm | - | - | - |
| 1778108888 | 26.67° C | 100% | 1014.5 hPa | 0 mm | - | - | - |
| 1778108588 | 26.67° C | 100% | 1014.5 hPa | 0 mm | - | - | - |
| 1778108288 | 26.67° C | 100% | 1014.5 hPa | 0 mm | - | - | - |
| 1778107988 | 27.22° C | 100% | 1014.5 hPa | 0 mm | - | - | - |
| 1778107688 | 27.22° C | 100% | 1014.4 hPa | 0 mm | - | - | - |
| 1778107388 | 27.78° C | 100% | 1014.4 hPa | 0 mm | - | - | - |
| 1778107088 | 27.78° C | 100% | 1014.4 hPa | 0 mm | - | - | - |
| 1778106788 | 27.78° C | 100% | 1014.4 hPa | 0 mm | - | - | - |
| 1778106488 | 28.89° C | 100% | 1014.4 hPa | 0 mm | - | - | - |
| 1778106188 | 29.44° C | 100% | 1013.1 hPa | 0 mm | - | - | - |
| 1778105888 | 29.44° C | 100% | 1014.6 hPa | 0 mm | - | - | - |
| 1778105681 | 30° C | 100% | 1014.6 hPa | 0 mm | - | - | - |
| 1778105588 | 30° C | 100% | 1014.6 hPa | 0 mm | - | - | - |
| 1778105288 | 30° C | 100% | 1014.6 hPa | 0 mm | - | - | - |
| 1778105056 | 31.11° C | 100% | 1014.6 hPa | 0 mm | - | - | - |
| 1778104988 | 30.56° C | 100% | 1014.6 hPa | 0 mm | - | - | - |
| 1778104688 | 31.11° C | 100% | 1014.6 hPa | 0 mm | - | - | - |
| 1778104440 | 30.56° C | 100% | 1014.6 hPa | 0 mm | - | - | - |
* Rain latest hour (hover to see other rain measurements)
** Current wind speed in m/s (hover to see current wind gust speed)